Weather History for KMUI - August, 2013

Change the Weather History Date:

Friday, August 9, 2013

  Actual Average Record
Temperature  
Mean Temperature 78 °F -  
Max Temperature 86 °F 82 °F 98 °F (2001)
Min Temperature 72 °F 67 °F 33 °F (2007)
Cooling Degree Days 14    
Growing Degree Days 28 (Base 50)    
Moisture  
Dew Point 74 °F    
Average Humidity 94    
Maximum Humidity 100    
Minimum Humidity 64    
Precipitation  
Precipitation 0.18 in - - ()
Sea Level Pressure  
Sea Level Pressure 29.90 in    
Wind  
Wind Speed 4 mph (SW)    
Max Wind Speed 15 mph    
Max Gust Speed 22 mph    
Visibility 6 miles    
Events Rain    
Averages and records for this station are not official NWS values.
T = Trace of Precipitation, MM = Missing Value Source: NWS Daily Summary

Daily Weather History Graph

Daily Weather History Graph

Search for Another Location

Airport or City:

Trip Planner

Search our weather history database for the weather conditions in past years. The results will help you decide how hot, cold, wet, or windy it might be!

Date:

Astronomy

Aug. 09, 2013 Rise Set
Actual Time 6:11 AM EDT 8:11 PM EDT
Civil Twilight 5:41 AM EDT 8:40 PM EDT
Nautical Twilight 5:05 AM EDT 9:17 PM EDT
Astronomical Twilight 4:25 AM EDT 9:56 PM EDT
Moon 8:56 AM EDT (8/9) 9:18 PM EDT (8/9)
Length of Visible Light 14h 59m
Length of Day
13h 59m
Waxing Crescent, 7% of the Moon is Illuminated
Aug 9
Waxing Crescent
Aug 14
First Quarter
Aug 20
Full
Aug 28
Last Quarter
Sep 5
New

Hourly Weather History & Observations

Time (EDT) Temp. Heat Index Dew Point Humidity Pressure Visibility Wind Dir Wind Speed Gust Speed Precip Events Conditions
12:10 AM 73.4 °F - 73.4 °F 100% 29.99 in 9.0 mi SSW 3.5 mph - N/A   Overcast
12:24 AM 73.4 °F - 73.4 °F 100% 29.99 in 9.0 mi West 2.3 mph - N/A   Overcast
12:36 AM 73.4 °F - 73.4 °F 100% 29.98 in 9.0 mi Variable 3.5 mph - N/A   Overcast
12:58 AM 73.2 °F - 73.0 °F 99% 29.97 in 8.0 mi WSW 2.3 mph - N/A   Overcast
1:18 AM 73.4 °F - 73.4 °F 100% 29.97 in 2.5 mi ENE 2.3 mph - N/A   Overcast
1:22 AM 73.4 °F - 73.4 °F 100% 29.96 in 1.5 mi Calm Calm - N/A   Overcast
1:26 AM 73.4 °F - 73.4 °F 100% 29.96 in 1.2 mi Calm Calm - N/A   Overcast
1:32 AM 73.4 °F - 73.4 °F 100% 29.96 in 1.8 mi Calm Calm - N/A   Overcast
1:36 AM 73.4 °F - 73.4 °F 100% 29.96 in 2.0 mi Calm Calm - N/A   Overcast
1:42 AM 73.4 °F - 73.4 °F 100% 29.96 in 3.0 mi Calm Calm - N/A   Overcast
1:58 AM 72.9 °F - 72.9 °F 100% 29.95 in 3.0 mi Calm Calm - N/A   Overcast
2:00 AM 73.4 °F - 73.4 °F 100% 29.95 in 2.5 mi Calm Calm - N/A   Overcast
2:06 AM 73.4 °F - 73.4 °F 100% 29.95 in 1.8 mi Calm Calm - N/A   Overcast
2:14 AM 73.4 °F - 73.4 °F 100% 29.95 in 2.0 mi Variable 2.3 mph - N/A   Overcast
2:15 AM 73.4 °F - 73.4 °F 100% 29.95 in 2.5 mi South 3.5 mph - N/A   Light Drizzle
2:17 AM 73.4 °F - 73.4 °F 100% 29.95 in 3.0 mi South 2.3 mph - N/A   Light Drizzle
2:27 AM 73.4 °F - 73.4 °F 100% 29.95 in 5.0 mi South 2.3 mph - N/A   Overcast
2:39 AM 73.4 °F - 73.4 °F 100% 29.94 in 5.0 mi South 3.5 mph - N/A   Light Drizzle
2:55 AM 73.4 °F - 73.4 °F 100% 29.94 in 5.0 mi SSW 3.5 mph - N/A   Light Drizzle
3:12 AM 73.4 °F - 73.4 °F 100% 29.94 in 5.0 mi WSW 2.3 mph - N/A Rain Light Rain
3:16 AM 73.4 °F - 73.4 °F 100% 29.94 in 5.0 mi West 2.3 mph - N/A   Overcast
5:44 AM 73.4 °F - 73.4 °F 100% 29.91 in 5.0 mi South 2.3 mph - N/A   Overcast
5:50 AM 73.4 °F - 73.4 °F 100% 29.91 in 5.0 mi Calm Calm - N/A   Overcast
5:56 AM 73.4 °F - 73.4 °F 100% 29.91 in 5.0 mi SSE 1.2 mph - N/A   Overcast
6:02 AM 73.4 °F - 73.4 °F 100% 29.90 in 5.0 mi SSE 3.5 mph - N/A   Light Drizzle
6:04 AM 73.4 °F - 73.4 °F 100% 29.90 in 5.0 mi SSE 3.5 mph - N/A   Light Drizzle
6:45 AM 73.4 °F - 73.4 °F 100% 29.90 in 3.0 mi SSE 2.3 mph - N/A   Overcast
6:54 AM 73.4 °F - 73.4 °F 100% 29.90 in 3.0 mi SSE 2.3 mph - N/A   Light Drizzle
6:58 AM 73.9 °F - 73.9 °F 100% 29.90 in 3.0 mi South 3.5 mph - 0.01 in   Drizzle
7:02 AM 73.4 °F - 73.4 °F 100% 29.90 in 4.0 mi South 2.3 mph - N/A   Light Drizzle
7:05 AM 73.4 °F - 73.4 °F 100% 29.90 in 5.0 mi South 2.3 mph - N/A   Overcast
7:07 AM 73.4 °F - 73.4 °F 100% 29.90 in 6.0 mi South 4.6 mph - N/A Rain Light Rain
7:13 AM 73.4 °F - 73.4 °F 100% 29.89 in 3.0 mi South 4.6 mph - N/A Rain Light Rain
7:15 AM 73.4 °F - 73.4 °F 100% 29.89 in 2.0 mi South 4.6 mph - N/A Rain Light Rain
7:16 AM 73.4 °F - 73.4 °F 100% 29.89 in 2.0 mi South 4.6 mph - N/A Rain Light Rain
7:18 AM 73.4 °F - 73.4 °F 100% 29.89 in 1.8 mi South 4.6 mph - N/A Rain Light Rain
7:24 AM 73.4 °F - 73.4 °F 100% 29.89 in 2.5 mi South 5.8 mph - N/A Rain Light Rain
7:26 AM 73.4 °F - 73.4 °F 100% 29.89 in 3.0 mi South 8.1 mph - N/A   Light Drizzle
7:29 AM 73.4 °F - 73.4 °F 100% 29.89 in 5.0 mi South 8.1 mph - N/A   Overcast
7:39 AM 73.4 °F - 73.4 °F 100% 29.89 in 8.0 mi SW 5.8 mph - N/A   Light Drizzle
7:52 AM 73.4 °F - 73.4 °F 100% 29.89 in 10.0 mi SW 8.1 mph - N/A   Overcast
7:58 AM 74.1 °F - 74.1 °F 100% 29.89 in 9.0 mi West 8.1 mph - 0.02 in   Overcast
7:59 AM 73.4 °F - 73.4 °F 100% 29.89 in 8.0 mi West 8.1 mph - N/A   Light Drizzle
8:01 AM 73.4 °F - 73.4 °F 100% 29.89 in 8.0 mi WSW 5.8 mph - N/A   Light Drizzle
8:03 AM 73.4 °F - 73.4 °F 100% 29.89 in 8.0 mi WSW 8.1 mph - N/A   Light Drizzle
8:09 AM 73.4 °F - 73.4 °F 100% 29.89 in 9.0 mi WSW 6.9 mph - N/A   Overcast
8:11 AM 73.4 °F - 73.4 °F 100% 29.89 in 9.0 mi WSW 6.9 mph - N/A   Overcast
8:17 AM 73.4 °F - 73.4 °F 100% 29.90 in 10.0 mi WSW 6.9 mph - N/A   Overcast
8:31 AM 75.2 °F - 75.2 °F 100% 29.89 in 10.0 mi SW 9.2 mph - N/A   Overcast
8:33 AM 75.2 °F - 75.2 °F 100% 29.90 in 10.0 mi SW 9.2 mph - N/A   Overcast
8:41 AM 75.2 °F - 75.2 °F 100% 29.89 in 10.0 mi SW 9.2 mph - N/A   Overcast
8:49 AM 75.2 °F - 75.2 °F 100% 29.89 in 10.0 mi SW 8.1 mph - N/A   Overcast
8:58 AM 75.4 °F - 75.0 °F 99% 29.89 in 10.0 mi WSW 11.5 mph - 0.00 in   Overcast
9:22 AM 77.0 °F - 77.0 °F 100% 29.89 in 10.0 mi SW 10.4 mph - N/A   Mostly Cloudy
9:24 AM 77.0 °F - 77.0 °F 100% 29.89 in 10.0 mi WSW 10.4 mph - N/A   Mostly Cloudy
9:58 AM 78.6 °F - 75.2 °F 89% 29.89 in 10.0 mi SW 11.5 mph 18.4 mph N/A   Mostly Cloudy
10:14 AM 78.8 °F - 75.2 °F 89% 29.89 in 10.0 mi WSW 10.4 mph - N/A   Mostly Cloudy
10:58 AM 80.4 °F 85.3 °F 74.1 °F 81% 29.89 in 10.0 mi SW 10.4 mph - N/A   Mostly Cloudy
11:40 AM 80.6 °F 85.4 °F 73.4 °F 79% 29.89 in 10.0 mi SW 8.1 mph - N/A   Mostly Cloudy
11:58 AM 81.0 °F 86.2 °F 73.9 °F 79% 29.89 in 10.0 mi SW 10.4 mph - N/A   Mostly Cloudy
12:58 PM 81.7 °F 87.1 °F 73.6 °F 76% 29.88 in 10.0 mi SW 10.4 mph - N/A   Scattered Clouds
1:58 PM 84.2 °F 90.9 °F 73.4 °F 70% 29.87 in 10.0 mi SW 12.7 mph - N/A   Scattered Clouds
2:58 PM 84.2 °F 90.3 °F 72.5 °F 68% 29.85 in 10.0 mi WSW 13.8 mph - N/A   Scattered Clouds
3:58 PM 85.3 °F 91.1 °F 72.0 °F 64% 29.85 in 10.0 mi WSW 15.0 mph - N/A   Partly Cloudy
4:12 PM 84.2 °F 89.6 °F 71.6 °F 66% 29.86 in 10.0 mi WNW 12.7 mph 21.9 mph N/A   Scattered Clouds
4:14 PM 84.2 °F 89.6 °F 71.6 °F 66% 29.85 in 10.0 mi NW 8.1 mph - N/A   Drizzle
4:28 PM 78.8 °F - 73.4 °F 83% 29.86 in 2.5 mi WNW 4.6 mph - N/A Rain Heavy Rain
4:30 PM 78.8 °F - 75.2 °F 89% 29.86 in 1.0 mi Variable 3.5 mph - N/A Rain Heavy Rain
4:32 PM 77.0 °F - 75.2 °F 94% 29.86 in 0.8 mi Variable 3.5 mph - N/A Rain Heavy Rain
4:38 PM 77.0 °F - 75.2 °F 94% 29.86 in 1.0 mi West 5.8 mph - N/A Rain Light Rain
4:40 PM 77.0 °F - 75.2 °F 94% 29.86 in 2.0 mi West 6.9 mph - N/A Rain Light Rain
4:42 PM 77.0 °F - 75.2 °F 94% 29.86 in 7.0 mi West 6.9 mph - N/A   Mostly Cloudy
4:55 PM 78.8 °F - 75.2 °F 89% 29.86 in 10.0 mi WSW 5.8 mph - N/A   Light Drizzle
4:58 PM 78.4 °F - 74.5 °F 88% 29.86 in 10.0 mi West 5.8 mph - 0.15 in   Light Drizzle
5:19 PM 78.8 °F - 77.0 °F 94% 29.86 in 10.0 mi WSW 5.8 mph - N/A   Scattered Clouds
5:20 PM 78.8 °F - 75.2 °F 89% 29.86 in 10.0 mi West 5.8 mph - N/A   Light Drizzle
5:30 PM 80.6 °F 86.2 °F 75.2 °F 84% 29.86 in 10.0 mi West 6.9 mph - N/A   Partly Cloudy
5:58 PM 81.0 °F 86.7 °F 74.8 °F 82% 29.86 in 10.0 mi Variable 5.8 mph - 0.00 in   Clear
6:58 PM 80.4 °F 84.7 °F 72.5 °F 77% 29.86 in 10.0 mi WSW 5.8 mph - N/A   Clear
7:58 PM 78.8 °F - 72.5 °F 81% 29.88 in 10.0 mi WSW 5.8 mph - N/A   Partly Cloudy
8:58 PM 76.3 °F - 74.5 °F 94% 29.90 in 10.0 mi West 3.5 mph - N/A   Scattered Clouds
11:58 PM 76.6 °F - 70.5 °F 81% 29.94 in 10.0 mi WNW 5.8 mph - N/A   Clear